Weather History for KMRH - December, 2012

Change the Weather History Date:

Saturday, December 8, 2012

  Actual Average Record
Temperature  
Mean Temperature 60 °F -  
Max Temperature 64 °F 61 °F 76 °F (1978)
Min Temperature 55 °F 39 °F 20 °F (1970)
Degree Days  
Heating Degree Days 6    
Growing Degree Days 10 (Base 50)    
Moisture  
Dew Point 60 °F    
Average Humidity 97    
Maximum Humidity 100    
Minimum Humidity 84    
Precipitation  
Precipitation 0.08 in - - ()
Sea Level Pressure  
Sea Level Pressure 30.01 in    
Wind  
Wind Speed 5 mph (WSW)    
Max Wind Speed 12 mph    
Max Gust Speed -    
Visibility 5 miles    
Events Fog , Rain    
Averages and records for this station are not official NWS values.
T = Trace of Precipitation, MM = Missing Value Source: NWS Daily Summary

Daily Weather History Graph

Daily Weather History Graph

Search for Another Location

Airport or City:

Trip Planner

Search our weather history database for the weather conditions in past years. The results will help you decide how hot, cold, wet, or windy it might be!

Date:

Astronomy

Dec. 08, 2012 Rise Set
Actual Time 7:01 AM EST 4:55 PM EST
Civil Twilight 6:33 AM EST 5:23 PM EST
Nautical Twilight 6:02 AM EST 5:54 PM EST
Astronomical Twilight 5:31 AM EST 6:25 PM EST
Moon 1:34 AM EST (12/8) 1:15 PM EST (12/8)
Length of Visible Light 10h 49m
Length of Day
9h 53m
Waning Crescent, 28% of the Moon is Illuminated
Dec 8
Waning Crescent
Dec 13
New
Dec 20
First Quarter
Dec 28
Full
Jan 4
Last Quarter

Hourly Weather History & Observations

Time (EST) Temp. Dew Point Humidity Pressure Visibility Wind Dir Wind Speed Gust Speed Precip Events Conditions
12:40 AM 62.6 °F 62.6 °F 100% 29.98 in 2.5 mi South 4.6 mph - 0.06 in Rain Heavy Rain
12:50 AM 62.6 °F 62.6 °F 100% 29.98 in 4.0 mi SSE 6.9 mph - 0.07 in Rain Light Rain
12:56 AM 63.0 °F 62.1 °F 97% 29.98 in 7.0 mi SSE 5.8 mph - 0.07 in Rain Light Rain
1:30 AM 62.6 °F 62.6 °F 100% 29.97 in 8.0 mi Calm Calm - 0.00 in   Overcast
1:56 AM 62.1 °F 62.1 °F 100% 29.97 in 4.0 mi Calm Calm - 0.00 in   Overcast
2:19 AM 62.6 °F 60.8 °F 94% 29.96 in 2.0 mi Calm Calm - 0.00 in   Overcast
2:29 AM 62.6 °F 60.8 °F 94% 29.95 in 4.0 mi Calm Calm - 0.00 in   Overcast
2:40 AM 62.6 °F 62.6 °F 100% 29.95 in 7.0 mi Calm Calm - 0.00 in   Overcast
2:49 AM 62.6 °F 62.6 °F 100% 29.95 in 7.0 mi Calm Calm - 0.00 in   Overcast
2:56 AM 62.1 °F 62.1 °F 100% 29.96 in 7.0 mi Calm Calm - 0.00 in   Mostly Cloudy
3:30 AM 60.8 °F 60.8 °F 100% 29.96 in 2.5 mi South 3.5 mph - N/A   Mostly Cloudy
3:33 AM 60.8 °F 60.8 °F 100% 29.96 in 1.5 mi Calm Calm - N/A   Mostly Cloudy
3:38 AM 60.8 °F 60.8 °F 100% 29.96 in 0.8 mi Calm Calm - N/A   Mostly Cloudy
3:56 AM 60.1 °F 60.1 °F 100% 29.96 in 0.5 mi South 3.5 mph - N/A Fog Fog
4:56 AM 60.1 °F 60.1 °F 100% 29.96 in 0.5 mi West 6.9 mph - 0.01 in Fog Fog
5:45 AM 60.8 °F 60.8 °F 100% 29.97 in 1.0 mi West 4.6 mph - N/A   Mist
5:50 AM 60.8 °F 60.8 °F 100% 29.97 in 2.0 mi West 3.5 mph - N/A   Overcast
5:53 AM 60.8 °F 60.8 °F 100% 29.97 in 3.0 mi West 3.5 mph - N/A   Overcast
5:56 AM 61.0 °F 61.0 °F 100% 29.98 in 4.0 mi West 3.5 mph - N/A   Overcast
6:56 AM 61.0 °F 61.0 °F 100% 29.99 in 10.0 mi West 5.8 mph - N/A   Overcast
7:56 AM 61.0 °F 61.0 °F 100% 30.01 in 10.0 mi West 4.6 mph - N/A   Overcast
8:37 AM 62.6 °F 60.8 °F 94% 30.01 in 10.0 mi WNW 8.1 mph - N/A   Overcast
8:56 AM 62.1 °F 60.1 °F 93% 30.02 in 10.0 mi West 9.2 mph - N/A   Overcast
9:56 AM 63.0 °F 60.1 °F 90% 30.04 in 10.0 mi WNW 6.9 mph - N/A   Overcast
10:28 AM 62.6 °F 60.8 °F 94% 30.04 in 10.0 mi NW 6.9 mph - N/A   Overcast
10:56 AM 64.0 °F 60.1 °F 87% 30.03 in 10.0 mi NW 5.8 mph - N/A   Mostly Cloudy
11:56 AM 64.0 °F 59.0 °F 84% 30.02 in 9.0 mi SW 10.4 mph - N/A   Partly Cloudy
12:56 PM 62.1 °F 57.9 °F 86% 30.00 in 7.0 mi SW 9.2 mph - N/A   Clear
1:56 PM 61.0 °F 57.9 °F 90% 30.00 in 9.0 mi SW 11.5 mph - N/A   Clear
2:56 PM 63.0 °F 57.9 °F 84% 30.00 in 10.0 mi SW 11.5 mph - N/A   Clear
3:56 PM 60.1 °F 57.0 °F 90% 30.01 in 10.0 mi SW 10.4 mph - N/A   Clear
4:56 PM 57.9 °F 57.0 °F 97% 30.03 in 8.0 mi SW 9.2 mph - N/A   Clear
5:56 PM 57.9 °F 55.9 °F 93% 30.04 in 7.0 mi SW 8.1 mph - N/A   Clear
6:56 PM 57.0 °F 55.9 °F 96% 30.06 in 6.0 mi SW 6.9 mph - N/A   Clear
7:56 PM 57.0 °F 55.9 °F 96% 30.07 in 5.0 mi SW 6.9 mph - N/A   Clear
8:23 PM 57.2 °F 57.2 °F 100% 30.06 in 5.0 mi SW 6.9 mph - N/A   Partly Cloudy
8:40 PM 57.2 °F 57.2 °F 100% 30.07 in 4.0 mi SW 8.1 mph - N/A   Mostly Cloudy
8:48 PM 57.2 °F 57.2 °F 100% 30.07 in 1.8 mi SW 9.2 mph - N/A   Mostly Cloudy
8:51 PM 57.2 °F 57.2 °F 100% 30.07 in 0.8 mi WSW 6.9 mph - N/A   Overcast
9:56 PM 55.9 °F 55.9 °F 100% 30.09 in 0.2 mi WSW 6.9 mph - N/A Fog Fog
10:56 PM 55.9 °F 55.9 °F 100% 30.09 in 0.2 mi SW 5.8 mph - N/A Fog Fog
11:56 PM 55.9 °F 55.9 °F 100% 30.09 in 0.2 mi SW 5.8 mph - N/A Fog Fog